IBE0140 SBRF-LEMD

Flight info

Callsign IBE0140
Flight time N/A
Altitude 34000
Route FNR B623 RAKUD UB623 CVS UN873 IPERA N873 GDV N858 VASTO UN858 PESAS N858 TLD
Aircraft A21N/M-SADE1GHIJ1J4J7M3P2RWXY/EB1D1G1

Departure

Time N/A
Airport Recife/Guararapes - Gilberto Freyre International Airport (SBRF)

Arrival

Time 2026-05-04 22:23
Airport Adolfo Suárez Madrid–Barajas Airport (LEMD)
Time Latitude Longitude Altitude Speed Heading
2026-05-04 21:54 38.27324 -5.74047 34074 ft 492 kts 26°
2026-05-04 21:54 38.30212 -5.71712 34074 ft 492 kts 26°
2026-05-04 21:55 38.35989 -5.67032 34072 ft 491 kts 26°
2026-05-04 21:55 38.41739 -5.62342 34066 ft 491 kts 26°
2026-05-04 21:56 38.47186 -5.56969 34060 ft 501 kts 37°
2026-05-04 21:56 38.52264 -5.50872 34072 ft 502 kts 38°
2026-05-04 21:57 38.57372 -5.44778 34073 ft 503 kts 37°
2026-05-04 21:57 38.62491 -5.38688 34065 ft 503 kts 37°
2026-05-04 21:58 38.67607 -5.32585 34046 ft 503 kts 37°
2026-05-04 21:58 38.72722 -5.26479 34053 ft 502 kts 37°
2026-05-04 21:59 38.77814 -5.20381 34093 ft 501 kts 37°
2026-05-04 21:59 38.82904 -5.14236 34054 ft 504 kts 37°
2026-05-04 22:00 38.88013 -5.08092 34046 ft 503 kts 36°
2026-05-04 22:00 38.93115 -5.01978 34049 ft 499 kts 36°
2026-05-04 22:01 38.98147 -4.95920 34038 ft 494 kts 36°
2026-05-04 22:01 39.03224 -4.89790 34088 ft 505 kts 36°
2026-05-04 22:01 39.05771 -4.86701 33938 ft 500 kts 37°
2026-05-04 22:02 39.08316 -4.83611 33536 ft 506 kts 36°
2026-05-04 22:02 39.10882 -4.80497 33165 ft 508 kts 37°
2026-05-04 22:02 39.13444 -4.77375 32520 ft 506 kts 37°
2026-05-04 22:02 39.16002 -4.74262 31790 ft 507 kts 37°
2026-05-04 22:03 39.18577 -4.71130 31046 ft 509 kts 37°
2026-05-04 22:03 39.21149 -4.67995 30310 ft 510 kts 37°
2026-05-04 22:03 39.23735 -4.64842 29419 ft 513 kts 37°
2026-05-04 22:03 39.26329 -4.61674 28532 ft 515 kts 37°
2026-05-04 22:04 39.28931 -4.58491 27651 ft 516 kts 38°
2026-05-04 22:04 39.31531 -4.55303 26876 ft 514 kts 38°
2026-05-04 22:04 39.34122 -4.52132 26136 ft 512 kts 38°
2026-05-04 22:04 39.36668 -4.49014 25455 ft 510 kts 39°
2026-05-04 22:05 39.39231 -4.45865 24760 ft 507 kts 39°
2026-05-04 22:05 39.41782 -4.42724 24072 ft 505 kts 39°
2026-05-04 22:05 39.44317 -4.39607 23342 ft 501 kts 39°
2026-05-04 22:05 39.46828 -4.36514 22586 ft 495 kts 40°
2026-05-04 22:06 39.49302 -4.33463 21839 ft 488 kts 40°
2026-05-04 22:06 39.51748 -4.30442 21132 ft 483 kts 40°
2026-05-04 22:06 39.54161 -4.27458 20444 ft 476 kts 40°
2026-05-04 22:06 39.56536 -4.24518 19771 ft 469 kts 40°
2026-05-04 22:07 39.58877 -4.21617 19154 ft 462 kts 40°
2026-05-04 22:07 39.61186 -4.18755 18556 ft 455 kts 41°
2026-05-04 22:07 39.63456 -4.15939 17937 ft 448 kts 41°
2026-05-04 22:07 39.65682 -4.13170 17330 ft 440 kts 41°
2026-05-04 22:08 39.67878 -4.10442 16717 ft 433 kts 41°
2026-05-04 22:08 39.70037 -4.07757 16138 ft 427 kts 41°
2026-05-04 22:08 39.72158 -4.05118 15600 ft 420 kts 41°
2026-05-04 22:08 39.74250 -4.02510 15088 ft 413 kts 42°
2026-05-04 22:09 39.76320 -3.99930 14544 ft 412 kts 42°
2026-05-04 22:09 39.78380 -3.97360 14067 ft 407 kts 42°
2026-05-04 22:09 39.80385 -3.94851 13570 ft 394 kts 42°
2026-05-04 22:09 39.82294 -3.92377 12993 ft 380 kts 44°
2026-05-04 22:10 39.84113 -3.89958 12409 ft 369 kts 44°
2026-05-04 22:10 39.85887 -3.87595 11934 ft 363 kts 44°
2026-05-04 22:10 39.87640 -3.85264 11631 ft 357 kts 44°
2026-05-04 22:10 39.89353 -3.82988 11410 ft 346 kts 44°
2026-05-04 22:11 39.91007 -3.80788 11189 ft 333 kts 44°
2026-05-04 22:11 39.92592 -3.78679 10919 ft 319 kts 44°
2026-05-04 22:11 39.94116 -3.76648 10786 ft 307 kts 44°
2026-05-04 22:11 39.95578 -3.74698 10666 ft 295 kts 44°
2026-05-04 22:12 39.97004 -3.72797 10452 ft 291 kts 44°
2026-05-04 22:12 39.98418 -3.70911 10238 ft 291 kts 44°
2026-05-04 22:12 39.99828 -3.69029 9989 ft 288 kts 44°
2026-05-04 22:12 40.01203 -3.67191 9707 ft 286 kts 44°
2026-05-04 22:13 40.02593 -3.65333 9473 ft 278 kts 44°
2026-05-04 22:13 40.03927 -3.63551 9165 ft 272 kts 44°
2026-05-04 22:13 40.05242 -3.61792 8870 ft 270 kts 44°
2026-05-04 22:13 40.06549 -3.60040 8578 ft 268 kts 44°
2026-05-04 22:14 40.07846 -3.58302 8315 ft 267 kts 44°
2026-05-04 22:14 40.09139 -3.56570 8050 ft 265 kts 44°
2026-05-04 22:14 40.10423 -3.54846 7789 ft 264 kts 44°
2026-05-04 22:14 40.11700 -3.53132 7534 ft 263 kts 44°
2026-05-04 22:15 40.12972 -3.51424 7280 ft 261 kts 44°
2026-05-04 22:15 40.14235 -3.49725 7036 ft 260 kts 44°
2026-05-04 22:15 40.15492 -3.48034 6835 ft 257 kts 44°
2026-05-04 22:15 40.16732 -3.46372 6663 ft 253 kts 43°
2026-05-04 22:16 40.18006 -3.44809 6464 ft 249 kts 40°
2026-05-04 22:16 40.19291 -3.43298 6232 ft 248 kts 40°
2026-05-04 22:16 40.20563 -3.41822 5993 ft 247 kts 37°
2026-05-04 22:16 40.21977 -3.40583 5737 ft 243 kts 27°
2026-05-04 22:17 40.23449 -3.39520 5518 ft 241 kts 26°
2026-05-04 22:17 40.24932 -3.38516 5305 ft 238 kts 19°
2026-05-04 22:17 40.26507 -3.38090 5142 ft 226 kts
2026-05-04 22:17 40.28034 -3.37999 5076 ft 214 kts 360°
2026-05-04 22:18 40.29512 -3.37925 5143 ft 213 kts
2026-05-04 22:18 40.30994 -3.37875 5094 ft 212 kts 353°
2026-05-04 22:18 40.32384 -3.38403 5003 ft 207 kts 330°
2026-05-04 22:18 40.33574 -3.39439 4993 ft 205 kts 316°
2026-05-04 22:19 40.34633 -3.40681 4995 ft 205 kts 322°
2026-05-04 22:19 40.35733 -3.41806 4898 ft 191 kts 321°
2026-05-04 22:19 40.36743 -3.42831 4679 ft 176 kts 321°
2026-05-04 22:19 40.37680 -3.43782 4404 ft 165 kts 321°
2026-05-04 22:20 40.38559 -3.44674 4201 ft 154 kts 321°
2026-05-04 22:20 40.39348 -3.45474 4003 ft 139 kts 321°
2026-05-04 22:20 40.40107 -3.46245 3814 ft 138 kts 321°
2026-05-04 22:20 40.40864 -3.47014 3617 ft 138 kts 321°
2026-05-04 22:21 40.41620 -3.47782 3437 ft 138 kts 321°
2026-05-04 22:21 40.42377 -3.48552 3216 ft 139 kts 321°
2026-05-04 22:21 40.43148 -3.49336 3023 ft 140 kts 321°
2026-05-04 22:21 40.43912 -3.50122 2835 ft 139 kts 320°
2026-05-04 22:22 40.44659 -3.50915 2654 ft 138 kts 319°
2026-05-04 22:22 40.45415 -3.51702 2477 ft 138 kts 320°
2026-05-04 22:22 40.46179 -3.52464 2250 ft 138 kts 320°
2026-05-04 22:22 40.46944 -3.53223 2040 ft 138 kts 321°
2026-05-04 22:23 40.47700 -3.53975 1928 ft 128 kts 321°
2026-05-04 22:23 40.48261 -3.54544 1939 ft 72 kts 321°
2026-05-04 22:23 40.48501 -3.54791 1945 ft 15 kts 321°
2026-05-04 22:23 40.48594 -3.54888 1950 ft 51 kts 322°
2026-05-04 22:24 40.48785 -3.55079 1956 ft 20 kts 322°
2026-05-04 22:24 40.48902 -3.55196 1958 ft 23 kts 322°
2026-05-04 22:24 40.49035 -3.55331 1959 ft 26 kts 322°
2026-05-04 22:24 40.49170 -3.55475 1961 ft 23 kts 303°
2026-05-04 22:25 40.49241 -3.55683 1966 ft 25 kts 294°
2026-05-04 22:25 40.49272 -3.55788 1970 ft 12 kts 291°
2026-05-04 22:25 40.49299 -3.55906 1969 ft 15 kts 271°
2026-05-04 22:25 40.49300 -3.56031 1964 ft 7 kts 269°
2026-05-04 22:26 40.49299 -3.56106 1964 ft 10 kts 269°
2026-05-04 22:26 40.49309 -3.56216 1966 ft 15 kts 307°
2026-05-04 22:26 40.49368 -3.56246 1967 ft 1 kts
2026-05-04 22:26 40.49376 -3.56246 1967 ft 2 kts
2026-05-04 22:27 40.49400 -3.56246 1967 ft 5 kts
2026-05-04 22:27 40.49450 -3.56245 1967 ft 9 kts
2026-05-04 22:27 40.49526 -3.56248 1966 ft 13 kts 359°
2026-05-04 22:27 40.49594 -3.56248 1967 ft 6 kts
2026-05-04 22:28 40.49616 -3.56307 1968 ft 6 kts 273°
2026-05-04 22:28 40.49617 -3.56344 1971 ft 0 kts 270°
2026-05-04 22:35 40.49635 -3.56367 1974 ft 0 kts 270°